Regional Weather Roundup
Issued by NWS Boston, MA

Current Version | Previous Version | Text Only | Print | Product List | Glossary Off
Versions: 1 2 3 4 5 6 7 8 9 10 11 12 13 14 15 16 17 18 19 20 21 22 23 24 25 26 27
000 ASUS41 KBOX 251910 RWRBOX REGIONAL WEATHER ROUNDUP NATIONAL WEATHER SERVICE TAUNTON MA 300 PM EDT SUN JUN 25 2017 NOTE: "FAIR" INDICATES FEW OR NO CLOUDS BELOW 12,000 FEET WITH NO SIGNIFICANT WEATHER AND/OR OBSTRUCTIONS TO VISIBILITY. MAZALL-252000- EASTERN MASSACHUSETTS CITY SKY/WX TMP DP RH WIND PRES REMARKS BOSTON MOSUNNY 85 51 31 W8 29.88F BEVERLY MOSUNNY 82 55 39 W8 29.87F LAWRENCE MOSUNNY 85 53 33 W12 29.89F BEDFORD PTSUNNY 81 49 32 VRB6 29.87F BLUE HILL N/A 80 51 36 VRB5 29.90F NORWOOD PTSUNNY 85 54 34 SW8 29.88F MARSHFIELD MOSUNNY 75 57 53 SE7G14 29.90F PLYMOUTH SUNNY 82 53 36 W13G20 29.91F TAUNTON SUNNY 84 55 36 SW10 29.90F NEW BEDFORD SUNNY 79 57 46 SW15 29.92S $$ MAZALL-252000- CAPE COD AND THE ISLANDS CITY SKY/WX TMP DP RH WIND PRES REMARKS FALMOUTH SUNNY 81 57 44 SW13G20 29.93F HYANNIS SUNNY 77 61 57 S12 29.91F CHATHAM SUNNY 77 63 61 SW12G17 29.94F PROVINCETOWN SUNNY 81 57 43 S12 29.92F NANTUCKET SUNNY 73 61 65 SW10 29.95F MARTHAS VNYRD SUNNY 78 52 40 SW13 29.94F $$ MAZALL-252000- CENTRAL AND WESTERN MASSACHUSETTS CITY SKY/WX TMP DP RH WIND PRES REMARKS WORCESTER LGT RAIN 72 57 59 W8 29.93F FITCHBURG LGT RAIN 79 54 41 W8 29.91F ORANGE CLOUDY 80 53 39 SW13 29.91F SPRINGFIELD PTSUNNY 77 54 45 W14 29.91R WESTFIELD CLOUDY 74 53 48 W10 29.92F NORTH ADAMS MOSUNNY 78 55 44 SW9 29.90F PITTSFIELD MOSUNNY 74 54 49 SW10G20 29.92F $$ RIZALL-252000- RHODE ISLAND CITY SKY/WX TMP DP RH WIND PRES REMARKS PROVIDENCE MOSUNNY 82 54 37 W9 29.91F NEWPORT SUNNY 77 57 50 S13G20 29.92F BLOCK ISLAND SUNNY 75 58 55 SW14 29.96F WESTERLY SUNNY 80 59 48 SW12 29.95S $$ CTZALL-252000- CONNECTICUT CITY SKY/WX TMP DP RH WIND PRES REMARKS BRADLEY INTL PTSUNNY 74 56 53 NW13G24 29.91F HARTFORD MOSUNNY 81 56 42 SW8 29.89F BRIDGEPORT MOSUNNY 83 56 39 S12 29.92F DANBURY LGT RAIN 68 64 87 SW7 29.97R GROTON SUNNY 75 60 59 S12 29.93F NEW HAVEN PTSUNNY 79 55 44 S7 29.92F CHESTER FAIR 79 54 41 SW12 29.94F MERIDEN LGT RAIN 77 58 51 SW8 29.92F WILLIMANTIC SUNNY 86 54 33 SW14 29.90F OXFORD PTSUNNY 72 59 64 SW5 29.96S $$ MEZ002-015-021-024-NHZ003-005-008-011-012-014-VTZ005-008-252000- NORTHERN NEW ENGLAND CITY SKY/WX TMP DP RH WIND PRES REMARKS PORTLAND ME MOSUNNY 78 49 35 SW8 29.86F BANGOR ME MOSUNNY 78 51 38 W13G23 29.83F CONCORD NH SUNNY 83 52 34 SW13 29.87F MANCHESTER NH PTSUNNY 80 50 34 W8 29.87F NASHUA NH PTSUNNY 83 54 36 W3 29.88F PORTSMOUTH NH PTSUNNY 82 54 37 SW7 29.86F JAFFREY NH MOSUNNY 78 52 40 VRB5G17 29.92F KEENE NH MOSUNNY 79 52 38 SW8 29.90F BURLINGTON VT CLOUDY 74 57 55 S7 29.84F MT. WASHINGTON SHOWER 48 43 81 W18 N/A $$ NYZ052-076-252000- EASTERN NEW YORK CITY SKY/WX TMP DP RH WIND PRES REMARKS ALBANY MOSUNNY 80 51 36 W15 29.90F NEW YORK CITY PTSUNNY 82 57 42 S16 29.92F $$ ANZALL-252000- MARINE OBSERVATIONS STATION/POSITION TIME TEMP WIND PRES VSBY WAVE AIR SEA DIR/SP/G HT/PER (UTC) (F) (DEG/KT/KT) (MB) (MI) (FT/S) BOSTON BUOY 1850 66 63 130/ 10/ 10 1012.1F 1/ 8 BUZZARDS BAY 1800 69 220/ 17/ 18 1014.3F NANTUCKET SOUND 1850 68 1013.6F 1/ 4 MASS BAY-STELLWA 1804 66 62 170/ 4/ 6 1011.7F 2/ 8 ISLE OF SHOALS 1800 69 160/ 11/ 11 1011.9F S OF BLOCK IS 1855 66 N/A 4/ 8 $$ ......................KEY......................... SKY/WX - SKY CONDITION/PRESENT WEATHER TMP - TEMPERATURE IN FAHRENHEIT DWPT - DEWPOINT IN FAHRENHEIT RH - RELATIVE HUMIDITY IN PERCENT WIND - DIRECTION AND SPEED IN MPH PRES - MEAN SEA LEVEL PRESSURE IN INCHES OF HG WCI - WIND CHILL INDEX VSB - VISIBILITY IN MILES HX - HEAT INDEX TC - TEMPERATURE IN CELSIUS VRB - VARIABLE WIND DIRECTION N/A - NOT AVAILABLE

USA.gov is the U.S. government's official web portal to all federal, state and local government web resources and services.